[[{"header":{"parameterUnit":"m.s-1","parameterCategory":1,"la1":30.2991,"la2":30.254,"lo1":-89.0895,"lo2":-89.0444,"dy":0.0017,"dx":0.0017,"nx":28,"ny":28,"refTime":"2023-09-22T21:00:00:Z","depth":0,"parameterNumber":2,"parameterNumberName":"U-component_of_WINDS"},"data":[0,0,0,0,0,0,0,0,0,0,0,0,0,0,0,0,0,0,0,0,0,0,0,0,0,0,0,0,0,0,0,0,0,0,0,0,0,0,0,0,0,0,0,0,0,0,0,0,0,0,0,0,0,0,0,0,0,0,-1.5971,-1.5972,0,-1.5995,-1.5995,-1.5996,-1.5911,-1.5909,-1.5906,-1.5904,-1.593,-1.5933,-1.5936,0,0,0,0,0,0,0,0,0,0,0,0,0,-1.5855,-1.5857,-1.5971,-1.5972,-1.5972,-1.5995,-1.5995,-1.5996,-1.5912,-1.5909,-1.5905,-1.5903,-1.5929,-1.5933,-1.5936,0,0,0,0,0,0,0,0,0,0,0,0,0,-1.5895,-1.5858,-1.5971,-1.5933,-1.593,-1.5995,-1.5995,-1.5996,-1.5912,-1.5908,-1.5905,-1.5901,-1.5928,-1.5932,-1.5937,-1.6041,0,0,-1.5951,-1.5953,0,0,0,0,0,0,0,0,-1.5893,-1.5899,-1.5938,-1.5936,-1.5932,-1.5946,-1.5964,-1.6011,-1.5913,-1.5919,-1.5904,-1.5899,-1.5939,-1.5942,-1.5955,-1.6043,-1.6044,-1.5951,-1.5954,-1.5956,-1.5957,0,0,0,0,0,0,0,-1.589,-1.5898,-1.5981,-1.5939,-1.5935,-1.5915,-1.5916,-1.5972,-1.595,-1.5918,-1.5912,-1.5916,-1.5936,-1.5951,-1.5955,-1.6044,-1.5951,-1.5955,-1.5958,-1.596,-1.6218,-1.6222,0,0,0,0,0,0,-1.5892,-1.5896,-1.598,-1.5982,-1.5902,-1.592,-1.5922,-1.5946,-1.5949,-1.5946,-1.5919,-1.5912,-1.5945,-1.595,-1.5956,-1.6078,-1.5956,-1.596,-1.5963,-1.6214,-1.6219,-1.6224,0,0,0,0,0,0,-1.589,-1.59,-1.5979,-1.5937,-1.5945,-1.5926,-1.5954,-1.5948,-1.5962,-1.595,-1.5945,-1.5938,-1.5942,-1.5949,-1.602,-1.6078,-1.5962,-1.5967,-1.621,-1.6216,-1.6222,-1.6324,0,0,0,0,0,0,-1.5887,-1.59,-1.5939,-1.5939,-1.5948,-1.6044,-1.5957,-1.5951,-1.597,-1.5961,-1.5966,-1.5964,-1.594,-1.6014,-1.6025,-1.6082,-1.597,-1.6204,-1.6212,-1.622,-1.6316,-1.6333,-1.6348,0,0,0,0,0,-1.5883,-1.5968,-1.5942,-1.5952,-1.5997,-1.6047,-1.6052,-1.6023,-1.5975,-1.6015,-1.6007,-1.5963,-1.607,-1.6022,-1.6034,-1.6093,-1.6201,-1.621,-1.6219,-1.6309,-1.633,-1.6348,0,0,0,0,0,0,-1.5976,-1.5967,-1.5938,-1.6025,-1.6037,-1.6033,-1.6081,-1.6046,-1.6073,-1.6063,-1.6025,-1.6027,-1.6106,-1.6106,-1.6053,-1.6194,-1.6127,-1.6139,-1.6191,-1.6211,-1.6227,-1.6226,-1.5974,0,0,0,0,0,-1.6007,-1.6048,-1.6038,-1.6116,-1.6123,-1.6102,-1.6122,-1.6098,-1.611,-1.6115,-1.6112,-1.6125,-1.6161,-1.6186,-1.6219,-1.6315,-1.6315,-1.6362,-1.6378,-1.6391,-1.6403,-1.6454,-1.6474,-1.6254,-1.6254,-1.6254,0,0,-1.6071,-1.6071,-1.6099,-1.6134,-1.6141,-1.6185,-1.6107,-1.6156,-1.6189,-1.6122,-1.6189,-1.6188,-1.62,-1.6285,-1.6322,-1.6288,-1.6463,-1.6403,-1.6414,-1.6418,-1.6465,-1.6486,-1.6505,-1.626,-1.6259,-1.6258,0,0,-1.621,-1.6214,-1.6279,-1.6287,-1.6298,-1.6283,-1.6299,-1.6299,-1.6296,-1.6362,-1.6313,-1.6351,-1.6415,-1.6426,-1.644,-1.6582,-1.6544,-1.6594,-1.6679,-1.673,-1.6747,-1.6762,-1.6813,-1.6832,-1.6605,-1.6605,-1.6605,0,-1.6289,-1.6352,-1.6317,-1.637,-1.6387,-1.6328,-1.6394,-1.6404,-1.6426,-1.6439,-1.6401,-1.6479,-1.6483,-1.6569,-1.6604,-1.6617,-1.6634,-1.6594,-1.6747,-1.6762,-1.6776,-1.6824,-1.6844,-1.6611,-1.6611,-1.661,-1.6609,0,-1.6448,-1.6493,-1.6544,-1.6566,-1.6589,-1.6648,-1.6623,-1.665,-1.6624,-1.6613,-1.6682,-1.6684,-1.6717,-1.6735,-1.671,-1.6818,-1.6797,-1.6753,-1.6685,-1.6803,-1.6848,-1.6867,-1.662,-1.6618,-1.6616,-1.6615,0,0,-1.6648,-1.6648,-1.6668,-1.6677,-1.6684,-1.6719,-1.6775,-1.6806,-1.6831,-1.6847,-1.6894,-1.6949,-1.6909,-1.6925,-1.69,-1.6945,-1.7058,-1.6896,-1.6895,-1.6926,-1.7177,-1.721,-1.7232,-1.7032,-1.7035,-1.7038,-1.7176,0,-1.6784,-1.6881,-1.6851,-1.6949,-1.699,-1.6934,-1.6983,-1.6994,-1.6985,-1.7019,-1.701,-1.7049,-1.6993,-1.7002,-1.7043,-1.7035,-1.7108,-1.7025,-1.7076,-1.7078,-1.7075,-1.7255,-1.729,-1.7421,-1.7193,-1.7196,-1.7199,0,-1.6957,-1.698,-1.7082,-1.7082,-1.7098,-1.7143,-1.7169,-1.7202,-1.7212,-1.7203,-1.7221,-1.7187,-1.7243,-1.7174,-1.7251,-1.7196,-1.7215,-1.7214,-1.7218,-1.7222,-1.7146,-1.7265,-1.7461,-1.7481,-1.7226,-1.7224,-1.7222,0,-1.7093,-1.7149,-1.7217,-1.7226,-1.7228,-1.7261,-1.7264,-1.727,-1.7291,-1.7313,-1.7326,-1.7356,-1.7372,-1.7396,-1.7371,-1.7323,-1.7452,-1.7381,-1.7447,-1.7447,-1.7477,-1.7475,-1.768,-1.7489,-1.7488,-1.7488,-1.7488,0,-1.7249,-1.7314,-1.7278,-1.732,-1.739,-1.7355,-1.7427,-1.7423,-1.7429,-1.747,-1.7423,-1.7463,-1.7427,-1.7464,-1.7445,-1.7512,-1.752,-1.7514,-1.7508,-1.7519,-1.7519,-1.7531,-1.7521,-1.7493,-1.7492,-1.7491,-1.749,0,-1.7413,-1.7392,-1.7462,-1.7458,-1.7458,-1.7511,-1.7507,-1.7546,-1.7533,-1.7585,-1.7596,-1.7577,-1.7617,-1.7595,-1.7636,-1.7623,-1.7711,-1.7692,-1.7707,-1.7702,-1.7769,-1.7763,-1.7988,-1.8016,-1.7807,-1.7809,-1.7811,0,-1.7515,-1.7563,-1.7563,-1.7587,-1.7592,-1.7631,-1.7651,-1.7618,-1.7642,-1.7657,-1.7694,-1.773,-1.7757,-1.7824,-1.7815,-1.7846,-1.7829,-1.7905,-1.7833,-1.7842,-1.783,-1.7828,-1.7833,-1.792,-1.7923,-1.7925,-1.7926,0,-1.7697,-1.7684,-1.7714,-1.7742,-1.7767,-1.7787,-1.7803,-1.7825,-1.7793,-1.7821,-1.7861,-1.7883,-1.7924,-1.7961,-1.7988,-1.7991,-1.7954,-1.7949,-1.7966,-1.7977,-1.7984,-1.7981,-1.7747,-1.7944,-1.7942,-1.7941,-1.794,-1.7939,-1.7833,-1.7873,-1.788,-1.7915,-1.7924,-1.794,-1.7976,-1.7968,-1.8001,-1.8032,-1.8011,-1.8058,-1.8067,-1.81,-1.8108,-1.8145,-1.8114,-1.8138,-1.8145,-1.8151,-1.816,-1.7977,-1.8149,-1.8149,-1.8148,-1.8148,-1.8148,0,-1.8013,-1.8014,-1.8048,-1.8071,-1.81,-1.8061,-1.8077,-1.8103,-1.8145,-1.8157,-1.8184,-1.823,-1.8265,-1.8258,-1.829,-1.8321,-1.8305,-1.8331,-1.8329,-1.833,-1.8186,-1.8168,-1.8344,-1.8344,-1.8344,-1.8343,-1.8343,-1.8343,-1.811,-1.8176,-1.8164,-1.8234,-1.8234,-1.828,-1.8292,-1.8307,-1.8316,-1.8369,-1.8398,-1.8393,-1.8397,-1.8429,-1.8459,-1.8456,-1.8471,-1.8503,-1.8494,-1.836,-1.834,-1.8322,-1.8305,-1.8506,-1.8506,-1.8635,-1.8636,-1.8637]},{"header":{"parameterUnit":"m.s-1","parameterCategory":1,"la1":30.2991,"la2":30.254,"lo1":-89.0895,"lo2":-89.0444,"dy":0.0017,"dx":0.0017,"nx":28,"ny":28,"refTime":"2023-09-22T21:00:00:Z","depth":0,"parameterNumber":3,"parameterNumberName":"V-component_of_WINDS"},"data":[0,0,0,0,0,0,0,0,0,0,0,0,0,0,0,0,0,0,0,0,0,0,0,0,0,0,0,0,0,0,0,0,0,0,0,0,0,0,0,0,0,0,0,0,0,0,0,0,0,0,0,0,0,0,0,0,0,0,-1.6149,-1.6149,0,-1.6185,-1.6185,-1.6185,-1.6199,-1.6199,-1.6199,-1.6199,-1.6233,-1.6234,-1.6235,0,0,0,0,0,0,0,0,0,0,0,0,0,-1.6088,-1.6089,-1.6148,-1.6149,-1.6149,-1.6184,-1.6185,-1.6185,-1.6199,-1.6199,-1.6199,-1.6199,-1.6232,-1.6234,-1.6235,0,0,0,0,0,0,0,0,0,0,0,0,0,-1.6118,-1.609,-1.6148,-1.6161,-1.6162,-1.6184,-1.6185,-1.6186,-1.6199,-1.6199,-1.6199,-1.6199,-1.6232,-1.6233,-1.6235,-1.6247,0,0,-1.6239,-1.624,0,0,0,0,0,0,0,0,-1.6117,-1.6121,-1.6158,-1.616,-1.6161,-1.6187,-1.6176,-1.6206,-1.6199,-1.6185,-1.6199,-1.6199,-1.6218,-1.622,-1.6227,-1.6248,-1.625,-1.624,-1.624,-1.6241,-1.6241,0,0,0,0,0,0,0,-1.6115,-1.6119,-1.6163,-1.6159,-1.6161,-1.6163,-1.6167,-1.6182,-1.6201,-1.6186,-1.6187,-1.6192,-1.6218,-1.6226,-1.6228,-1.625,-1.624,-1.6241,-1.6242,-1.6242,-1.6282,-1.6283,0,0,0,0,0,0,-1.6111,-1.6117,-1.6161,-1.6164,-1.6138,-1.6164,-1.6169,-1.6179,-1.6201,-1.6205,-1.6192,-1.6192,-1.6223,-1.6226,-1.6229,-1.6244,-1.6241,-1.6242,-1.6243,-1.6282,-1.6282,-1.6283,0,0,0,0,0,0,-1.611,-1.6115,-1.616,-1.6141,-1.6147,-1.6166,-1.6177,-1.618,-1.6187,-1.6206,-1.6209,-1.6196,-1.6223,-1.6227,-1.6242,-1.6246,-1.6243,-1.6244,-1.6282,-1.6282,-1.6283,-1.6275,0,0,0,0,0,0,-1.6108,-1.6114,-1.612,-1.6141,-1.6148,-1.6174,-1.6177,-1.6181,-1.619,-1.6191,-1.621,-1.6213,-1.6223,-1.624,-1.6244,-1.6248,-1.6246,-1.6282,-1.6282,-1.6282,-1.6275,-1.6275,-1.6275,0,0,0,0,0,-1.6106,-1.6115,-1.612,-1.6125,-1.6155,-1.6174,-1.6178,-1.619,-1.619,-1.6196,-1.6207,-1.6213,-1.6245,-1.6242,-1.6246,-1.625,-1.6282,-1.6282,-1.6282,-1.6275,-1.6275,-1.6275,0,0,0,0,0,0,-1.6093,-1.6119,-1.6124,-1.6141,-1.6155,-1.6176,-1.6183,-1.6189,-1.6203,-1.6203,-1.6217,-1.6221,-1.6235,-1.6244,-1.624,-1.6263,-1.6264,-1.6265,-1.6256,-1.6256,-1.6256,-1.6254,-1.6247,0,0,0,0,0,-1.6093,-1.6107,-1.6128,-1.6141,-1.6148,-1.6164,-1.6173,-1.6181,-1.6196,-1.6202,-1.6214,-1.6228,-1.6241,-1.6249,-1.6262,-1.6276,-1.628,-1.6281,-1.6281,-1.6281,-1.6282,-1.629,-1.629,-1.6284,-1.6284,-1.6284,0,0,-1.6091,-1.6107,-1.6115,-1.6139,-1.6151,-1.6164,-1.6169,-1.6183,-1.6192,-1.6203,-1.6219,-1.6229,-1.6244,-1.6259,-1.6266,-1.6267,-1.6285,-1.6282,-1.6281,-1.6282,-1.629,-1.6291,-1.6291,-1.6284,-1.6284,-1.6284,0,0,-1.6096,-1.6109,-1.6121,-1.6134,-1.6152,-1.6163,-1.6166,-1.6186,-1.6193,-1.6209,-1.6217,-1.6228,-1.6251,-1.6262,-1.627,-1.6278,-1.6283,-1.6282,-1.6281,-1.6289,-1.6289,-1.629,-1.6292,-1.6293,-1.6283,-1.6283,-1.6283,0,-1.6091,-1.6113,-1.6127,-1.614,-1.615,-1.6162,-1.6174,-1.6184,-1.6205,-1.6212,-1.6213,-1.6241,-1.6252,-1.6269,-1.6271,-1.6278,-1.6281,-1.628,-1.6288,-1.6289,-1.629,-1.6292,-1.6293,-1.6282,-1.6282,-1.6282,-1.6282,0,-1.6106,-1.6121,-1.6128,-1.615,-1.616,-1.6173,-1.6188,-1.6197,-1.6204,-1.6214,-1.623,-1.6244,-1.626,-1.6265,-1.6272,-1.6283,-1.6283,-1.6286,-1.6287,-1.629,-1.6292,-1.6293,-1.6282,-1.6282,-1.6282,-1.6282,0,0,-1.6104,-1.6133,-1.6136,-1.6145,-1.6166,-1.6177,-1.619,-1.6207,-1.6214,-1.6228,-1.6238,-1.6257,-1.626,-1.6269,-1.6277,-1.6284,-1.6289,-1.6286,-1.6287,-1.6286,-1.6302,-1.6299,-1.63,-1.6293,-1.6293,-1.6293,-1.63,0,-1.6111,-1.6135,-1.6148,-1.6167,-1.618,-1.6191,-1.6202,-1.6215,-1.6225,-1.6237,-1.6247,-1.626,-1.6263,-1.6269,-1.6276,-1.6287,-1.6292,-1.6287,-1.6302,-1.6302,-1.6298,-1.6302,-1.6299,-1.6306,-1.6302,-1.6302,-1.6302,0,-1.6122,-1.6138,-1.6158,-1.6177,-1.6183,-1.6193,-1.6209,-1.622,-1.6236,-1.6242,-1.6253,-1.6261,-1.6274,-1.6274,-1.6291,-1.6287,-1.6294,-1.63,-1.63,-1.6302,-1.6302,-1.6304,-1.6308,-1.6309,-1.6304,-1.6304,-1.6303,0,-1.6118,-1.6144,-1.6159,-1.6167,-1.619,-1.6197,-1.6206,-1.6221,-1.623,-1.6244,-1.625,-1.6264,-1.6272,-1.6283,-1.6294,-1.6293,-1.631,-1.6311,-1.6315,-1.6315,-1.6318,-1.6318,-1.6324,-1.6323,-1.6323,-1.6323,-1.6323,0,-1.6125,-1.6137,-1.6158,-1.6167,-1.618,-1.6194,-1.6207,-1.6217,-1.623,-1.6241,-1.6251,-1.6261,-1.6275,-1.6286,-1.6295,-1.6308,-1.6311,-1.6316,-1.6318,-1.6315,-1.6315,-1.632,-1.632,-1.6323,-1.6323,-1.6323,-1.6323,0,-1.6123,-1.6137,-1.6155,-1.6175,-1.6181,-1.6189,-1.6207,-1.6216,-1.6226,-1.6239,-1.6243,-1.6259,-1.6273,-1.6285,-1.6303,-1.6309,-1.6322,-1.6325,-1.6317,-1.6318,-1.6322,-1.6321,-1.6331,-1.6333,-1.6331,-1.6331,-1.6331,0,-1.6126,-1.6135,-1.6157,-1.6166,-1.6176,-1.6189,-1.6199,-1.6212,-1.6222,-1.624,-1.6246,-1.6261,-1.6273,-1.6294,-1.6307,-1.632,-1.6324,-1.6326,-1.6326,-1.6322,-1.6323,-1.6323,-1.6323,-1.6326,-1.6326,-1.6326,-1.6326,0,-1.613,-1.6137,-1.6151,-1.6167,-1.6178,-1.6192,-1.6205,-1.6211,-1.6227,-1.6237,-1.6252,-1.6262,-1.628,-1.6294,-1.6309,-1.6318,-1.6324,-1.6326,-1.6327,-1.6324,-1.632,-1.6322,-1.6317,-1.6325,-1.6326,-1.6326,-1.6326,-1.6326,-1.6131,-1.6139,-1.6156,-1.6171,-1.6183,-1.6195,-1.6205,-1.6217,-1.623,-1.6247,-1.6254,-1.6268,-1.6283,-1.6304,-1.6312,-1.6323,-1.6325,-1.6327,-1.6328,-1.6328,-1.6327,-1.6318,-1.6326,-1.6326,-1.6326,-1.6326,-1.6326,0,-1.6135,-1.6146,-1.616,-1.6179,-1.6191,-1.6197,-1.6212,-1.6221,-1.6234,-1.6247,-1.626,-1.6276,-1.629,-1.6303,-1.6318,-1.6324,-1.6327,-1.6327,-1.6327,-1.6328,-1.6325,-1.6323,-1.6324,-1.6324,-1.6324,-1.6324,-1.6324,-1.6324,-1.6139,-1.6154,-1.6163,-1.6183,-1.6194,-1.621,-1.6218,-1.6229,-1.624,-1.6258,-1.627,-1.6279,-1.6292,-1.6308,-1.632,-1.6324,-1.6328,-1.6327,-1.6332,-1.6329,-1.6329,-1.6329,-1.6326,-1.6328,-1.6328,-1.6334,-1.6334,-1.6334]}]]